GTI5561 MMMY-MMMX

Flight info

Callsign GTI5561
Flight time 1h 0m
Altitude 29000
Route URSUR UJ81 SLM DCT MEX
Aircraft B742/H-SDFHIRWXY/L

Departure

Time 2026-05-06 21:41
Airport Monterrey International Airport (MMMY)

Arrival

Time 2026-05-06 22:41
Airport Mexico City Benito Juárez International Airport (MMMX)
Time Latitude Longitude Altitude Speed Heading
2026-05-06 20:49 25.78018 -100.11765 1292 ft 0 kts 212°
2026-05-06 21:33 25.78031 -100.11756 1292 ft 2 kts 212°
2026-05-06 21:33 25.78044 -100.11748 1292 ft 2 kts 212°
2026-05-06 21:34 25.78056 -100.11739 1292 ft 2 kts 212°
2026-05-06 21:34 25.78067 -100.11727 1291 ft 2 kts 242°
2026-05-06 21:34 25.78070 -100.11712 1291 ft 2 kts 272°
2026-05-06 21:34 25.78067 -100.11698 1291 ft 0 kts 299°
2026-05-06 21:35 25.78065 -100.11695 1291 ft 0 kts 301°
2026-05-06 21:38 25.78072 -100.11707 1291 ft 3 kts 300°
2026-05-06 21:38 25.78089 -100.11739 1292 ft 6 kts 300°
2026-05-06 21:38 25.78119 -100.11797 1293 ft 10 kts 300°
2026-05-06 21:39 25.78168 -100.11857 1293 ft 10 kts
2026-05-06 21:39 25.78247 -100.11821 1293 ft 12 kts 26°
2026-05-06 21:39 25.78296 -100.11791 1292 ft 3 kts 32°
2026-05-06 21:39 25.78317 -100.11776 1292 ft 3 kts 32°
2026-05-06 21:40 25.78346 -100.11756 1291 ft 6 kts 31°
2026-05-06 21:40 25.78393 -100.11719 1290 ft 8 kts 69°
2026-05-06 21:40 25.78373 -100.11642 1290 ft 12 kts 122°
2026-05-06 21:40 25.78274 -100.11461 1286 ft 56 kts 121°
2026-05-06 21:41 25.77952 -100.10874 1275 ft 120 kts 121°
2026-05-06 21:41 25.77415 -100.09900 1273 ft 172 kts 121°
2026-05-06 21:41 25.76780 -100.08755 1746 ft 176 kts 121°
2026-05-06 21:41 25.76107 -100.07617 2293 ft 180 kts 123°
2026-05-06 21:42 25.75366 -100.06491 2851 ft 185 kts 124°
2026-05-06 21:42 25.74584 -100.05273 3054 ft 198 kts 110°
2026-05-06 21:42 25.73943 -100.03895 3239 ft 208 kts 123°
2026-05-06 21:42 25.73200 -100.02482 3402 ft 219 kts 118°
2026-05-06 21:43 25.72401 -100.00979 3568 ft 233 kts 117°
2026-05-06 21:43 25.71566 -99.99378 3734 ft 244 kts 117°
2026-05-06 21:43 25.70700 -99.97711 3901 ft 258 kts 117°
2026-05-06 21:43 25.69687 -99.95991 4062 ft 277 kts 133°
2026-05-06 21:44 25.68016 -99.94899 4522 ft 286 kts 165°
2026-05-06 21:44 25.66038 -99.94856 5076 ft 289 kts 194°
2026-05-06 21:44 25.64265 -99.95878 5566 ft 291 kts 223°
2026-05-06 21:44 25.62886 -99.97506 6180 ft 290 kts 230°
2026-05-06 21:45 25.61595 -99.99216 6819 ft 290 kts 231°
2026-05-06 21:45 25.60326 -100.00941 7413 ft 289 kts 237°
2026-05-06 21:45 25.59547 -100.02961 7982 ft 287 kts 252°
2026-05-06 21:45 25.58505 -100.04823 8517 ft 290 kts 222°
2026-05-06 21:46 25.56828 -100.06039 9119 ft 289 kts 209°
2026-05-06 21:46 25.55045 -100.07068 9703 ft 290 kts 207°
2026-05-06 21:46 25.53085 -100.07615 10203 ft 297 kts 185°
2026-05-06 21:46 25.50971 -100.07450 10448 ft 313 kts 173°
2026-05-06 21:47 25.48757 -100.07099 10704 ft 327 kts 175°
2026-05-06 21:47 25.46440 -100.06806 10961 ft 342 kts 177°
2026-05-06 21:47 25.44017 -100.06540 11196 ft 356 kts 176°
2026-05-06 21:47 25.41496 -100.06240 11455 ft 370 kts 176°
2026-05-06 21:48 25.38883 -100.05910 11693 ft 384 kts 176°
2026-05-06 21:48 25.36191 -100.05559 12093 ft 392 kts 176°
2026-05-06 21:48 25.33494 -100.05203 12852 ft 390 kts 176°
2026-05-06 21:48 25.30799 -100.04847 13485 ft 391 kts 176°
2026-05-06 21:49 25.28089 -100.04500 14043 ft 393 kts 177°
2026-05-06 21:49 25.25372 -100.04164 14669 ft 393 kts 178°
2026-05-06 21:49 25.22641 -100.03832 15219 ft 396 kts 178°
2026-05-06 21:49 25.19875 -100.03501 15771 ft 398 kts 178°
2026-05-06 21:50 25.17103 -100.03169 16439 ft 398 kts 178°
2026-05-06 21:50 25.14324 -100.02835 16969 ft 401 kts 178°
2026-05-06 21:50 25.11537 -100.02502 17522 ft 402 kts 178°
2026-05-06 21:50 25.08740 -100.02169 18049 ft 404 kts 178°
2026-05-06 21:51 25.05927 -100.01834 18549 ft 406 kts 178°
2026-05-06 21:51 25.03106 -100.01483 19008 ft 409 kts 178°
2026-05-06 21:51 25.00262 -100.01121 19549 ft 410 kts 178°
2026-05-06 21:51 24.97411 -100.00763 19952 ft 413 kts 178°
2026-05-06 21:52 24.94548 -100.00411 20390 ft 415 kts 178°
2026-05-06 21:52 24.91666 -100.00061 20845 ft 416 kts 179°
2026-05-06 21:52 24.88778 -99.99712 21244 ft 419 kts 178°
2026-05-06 21:52 24.85860 -99.99362 21656 ft 421 kts 178°
2026-05-06 21:53 24.82903 -99.99004 22021 ft 425 kts 178°
2026-05-06 21:53 24.79947 -99.98649 22464 ft 426 kts 178°
2026-05-06 21:53 24.76983 -99.98297 22827 ft 429 kts 178°
2026-05-06 21:53 24.74007 -99.97947 23188 ft 432 kts 178°
2026-05-06 21:54 24.71000 -99.97596 23511 ft 435 kts 178°
2026-05-06 21:54 24.67974 -99.97243 23857 ft 438 kts 178°
2026-05-06 21:54 24.64929 -99.96889 24148 ft 442 kts 178°
2026-05-06 21:54 24.61842 -99.96529 24445 ft 445 kts 178°
2026-05-06 21:55 24.58751 -99.96165 24789 ft 447 kts 178°
2026-05-06 21:55 24.55651 -99.95798 25194 ft 447 kts 178°
2026-05-06 21:55 24.52543 -99.95428 25474 ft 450 kts 178°
2026-05-06 21:55 24.49404 -99.95055 25715 ft 454 kts 178°
2026-05-06 21:56 24.46249 -99.94680 25995 ft 456 kts 178°
2026-05-06 21:56 24.43061 -99.94300 26268 ft 459 kts 178°
2026-05-06 21:56 24.39874 -99.93920 26551 ft 461 kts 178°
2026-05-06 21:56 24.36672 -99.93538 26843 ft 463 kts 178°
2026-05-06 21:57 24.33459 -99.93156 27125 ft 465 kts 178°
2026-05-06 21:57 24.30227 -99.92771 27380 ft 467 kts 178°
2026-05-06 21:57 24.26971 -99.92385 27612 ft 469 kts 178°
2026-05-06 21:57 24.23716 -99.91998 27867 ft 471 kts 178°
2026-05-06 21:58 24.20443 -99.91610 28104 ft 473 kts 178°
2026-05-06 21:58 24.17170 -99.91221 28376 ft 474 kts 178°
2026-05-06 21:58 24.13887 -99.90831 28709 ft 474 kts 178°
2026-05-06 21:58 24.10612 -99.90442 29066 ft 473 kts 178°
2026-05-06 21:59 24.07325 -99.90054 29241 ft 476 kts 178°
2026-05-06 21:59 24.04012 -99.89664 29283 ft 480 kts 178°
2026-05-06 21:59 23.97320 -99.88877 29304 ft 484 kts 178°
2026-05-06 22:00 23.90682 -99.88091 29310 ft 473 kts 178°
2026-05-06 22:00 23.84088 -99.87314 29315 ft 474 kts 178°
2026-05-06 22:01 23.77477 -99.86538 29307 ft 476 kts 178°
2026-05-06 22:01 23.70884 -99.85763 29302 ft 476 kts 178°
2026-05-06 22:02 23.64277 -99.84988 29284 ft 476 kts 178°
2026-05-06 22:02 23.57672 -99.84212 29301 ft 475 kts 178°
2026-05-06 22:03 23.51095 -99.83440 29278 ft 475 kts 178°
2026-05-06 22:03 23.44498 -99.82666 29252 ft 475 kts 177°
2026-05-06 22:04 23.37917 -99.81897 29208 ft 474 kts 177°
2026-05-06 22:04 23.31339 -99.81132 29187 ft 476 kts 177°
2026-05-06 22:05 23.24750 -99.80366 29145 ft 476 kts 177°
2026-05-06 22:05 23.18147 -99.79600 29115 ft 477 kts 177°
2026-05-06 22:06 23.11524 -99.78833 29078 ft 478 kts 177°
2026-05-06 22:06 23.04903 -99.78065 29066 ft 477 kts 177°
2026-05-06 22:07 22.98293 -99.77210 29067 ft 479 kts 174°
2026-05-06 22:07 22.91712 -99.75905 29036 ft 480 kts 172°
2026-05-06 22:08 22.85156 -99.74394 29033 ft 479 kts 171°
2026-05-06 22:08 22.78607 -99.72841 29011 ft 480 kts 171°
2026-05-06 22:09 22.72084 -99.71287 29007 ft 479 kts 171°
2026-05-06 22:09 22.65553 -99.69758 29002 ft 480 kts 171°
2026-05-06 22:10 22.58991 -99.68232 28998 ft 480 kts 171°
2026-05-06 22:10 22.52443 -99.66702 28994 ft 480 kts 171°
2026-05-06 22:11 22.45872 -99.65163 28989 ft 480 kts 171°
2026-05-06 22:11 22.39326 -99.63629 28994 ft 480 kts 171°
2026-05-06 22:12 22.32795 -99.62102 29004 ft 480 kts 170°
2026-05-06 22:12 22.26251 -99.60573 29031 ft 480 kts 170°
2026-05-06 22:13 22.19710 -99.59044 29040 ft 480 kts 170°
2026-05-06 22:13 22.13169 -99.57519 29029 ft 481 kts 171°
2026-05-06 22:14 22.06611 -99.55991 29014 ft 482 kts 170°
2026-05-06 22:14 22.00036 -99.54461 29001 ft 483 kts 170°
2026-05-06 22:15 21.93449 -99.52929 28990 ft 482 kts 170°
2026-05-06 22:15 21.86911 -99.51410 28964 ft 482 kts 170°
2026-05-06 22:16 21.80271 -99.49870 28947 ft 482 kts 170°
2026-05-06 22:16 21.73690 -99.48344 28923 ft 484 kts 170°
2026-05-06 22:17 21.67102 -99.46818 28927 ft 482 kts 170°
2026-05-06 22:17 21.60535 -99.45297 28920 ft 482 kts 170°
2026-05-06 22:18 21.53951 -99.43776 28952 ft 482 kts 170°
2026-05-06 22:18 21.47374 -99.42254 28982 ft 483 kts 169°
2026-05-06 22:19 21.40793 -99.40700 29002 ft 484 kts 169°
2026-05-06 22:19 21.34198 -99.39095 29004 ft 485 kts 169°
2026-05-06 22:20 21.27599 -99.37477 29002 ft 485 kts 169°
2026-05-06 22:20 21.21011 -99.35861 29019 ft 485 kts 169°
2026-05-06 22:21 21.14409 -99.34248 29068 ft 485 kts 169°
2026-05-06 22:21 21.07788 -99.32657 29094 ft 483 kts 169°
2026-05-06 22:22 21.01198 -99.31104 29132 ft 485 kts 169°
2026-05-06 22:22 20.94561 -99.29550 29171 ft 489 kts 169°
2026-05-06 22:23 20.87873 -99.27987 29197 ft 491 kts 169°
2026-05-06 22:23 20.81159 -99.26412 29206 ft 490 kts 169°
2026-05-06 22:24 20.74441 -99.24824 29229 ft 490 kts 169°
2026-05-06 22:24 20.67756 -99.23215 29245 ft 492 kts 169°
2026-05-06 22:25 20.61061 -99.21580 29261 ft 492 kts 169°
2026-05-06 22:25 20.54375 -99.19943 29264 ft 492 kts 169°
2026-05-06 22:26 20.47704 -99.18312 29276 ft 492 kts 169°
2026-05-06 22:26 20.44338 -99.17495 28725 ft 501 kts 169°
2026-05-06 22:26 20.40941 -99.16672 28099 ft 499 kts 169°
2026-05-06 22:27 20.37569 -99.15857 27470 ft 494 kts 168°
2026-05-06 22:27 20.34233 -99.15051 26843 ft 490 kts 168°
2026-05-06 22:27 20.30924 -99.14253 26217 ft 485 kts 168°
2026-05-06 22:27 20.27641 -99.13463 25591 ft 480 kts 168°
2026-05-06 22:28 20.24396 -99.12681 25026 ft 475 kts 168°
2026-05-06 22:28 20.21205 -99.11913 24609 ft 466 kts 168°
2026-05-06 22:28 20.18065 -99.11158 24225 ft 457 kts 168°
2026-05-06 22:28 20.14990 -99.10418 23844 ft 449 kts 168°
2026-05-06 22:29 20.11967 -99.09691 23457 ft 441 kts 168°
2026-05-06 22:29 20.08982 -99.08976 23068 ft 438 kts 168°
2026-05-06 22:29 20.06014 -99.08267 22689 ft 436 kts 168°
2026-05-06 22:29 20.03037 -99.07559 22319 ft 435 kts 168°
2026-05-06 22:30 20.00075 -99.06861 21963 ft 434 kts 168°
2026-05-06 22:30 19.97119 -99.06167 21610 ft 432 kts 168°
2026-05-06 22:30 19.94186 -99.05479 21260 ft 429 kts 167°
2026-05-06 22:30 19.91277 -99.04776 20912 ft 427 kts 167°
2026-05-06 22:31 19.88379 -99.04063 20599 ft 425 kts 167°
2026-05-06 22:31 19.85495 -99.03356 20468 ft 420 kts 167°
2026-05-06 22:31 19.82725 -99.02679 20429 ft 421 kts 167°
2026-05-06 22:31 19.80108 -99.01963 20406 ft 424 kts 165°
2026-05-06 22:32 19.77220 -99.01143 20380 ft 425 kts 167°
2026-05-06 22:32 19.74263 -99.00722 20021 ft 433 kts 178°
2026-05-06 22:32 19.71245 -99.00897 19416 ft 434 kts 186°
2026-05-06 22:32 19.68260 -99.01361 18810 ft 432 kts 188°
2026-05-06 22:33 19.65305 -99.01933 18175 ft 425 kts 189°
2026-05-06 22:33 19.62460 -99.02530 17579 ft 409 kts 190°
2026-05-06 22:33 19.59707 -99.03130 16997 ft 401 kts 190°
2026-05-06 22:33 19.56968 -99.03732 16392 ft 401 kts 190°
2026-05-06 22:34 19.54231 -99.04335 15794 ft 401 kts 190°
2026-05-06 22:34 19.51482 -99.04941 15189 ft 400 kts 190°
2026-05-06 22:34 19.48788 -99.05538 14586 ft 386 kts 191°
2026-05-06 22:34 19.46193 -99.06079 14117 ft 370 kts 189°
2026-05-06 22:35 19.43712 -99.06594 13784 ft 353 kts 195°
2026-05-06 22:35 19.41487 -99.07575 13483 ft 338 kts 209°
2026-05-06 22:35 19.39554 -99.08915 13187 ft 323 kts 214°
2026-05-06 22:35 19.37774 -99.10299 12884 ft 306 kts 216°
2026-05-06 22:36 19.36091 -99.11537 12586 ft 283 kts 204°
2026-05-06 22:36 19.34373 -99.12523 12213 ft 277 kts 212°
2026-05-06 22:36 19.32757 -99.13623 11777 ft 276 kts 209°
2026-05-06 22:36 19.31110 -99.14680 11333 ft 275 kts 216°
2026-05-06 22:37 19.29940 -99.16255 10927 ft 274 kts 249°
2026-05-06 22:37 19.29723 -99.18215 10590 ft 269 kts 280°
2026-05-06 22:37 19.30497 -99.19978 10243 ft 266 kts 313°
2026-05-06 22:37 19.32036 -99.21021 9995 ft 263 kts 346°
2026-05-06 22:38 19.33822 -99.21464 9917 ft 260 kts 348°
2026-05-06 22:38 19.35561 -99.21825 9893 ft 245 kts
2026-05-06 22:38 19.37147 -99.21365 9880 ft 235 kts 37°
2026-05-06 22:38 19.38141 -99.20079 9839 ft 222 kts 72°
2026-05-06 22:39 19.38538 -99.18509 9509 ft 221 kts 71°
2026-05-06 22:39 19.39018 -99.17009 9228 ft 208 kts 80°
2026-05-06 22:39 19.39390 -99.15544 8905 ft 204 kts 72°
2026-05-06 22:39 19.39941 -99.14207 8608 ft 195 kts 64°
2026-05-06 22:40 19.40599 -99.12982 8264 ft 187 kts 62°
2026-05-06 22:40 19.41231 -99.11801 7957 ft 181 kts 63°
2026-05-06 22:40 19.41860 -99.10666 7725 ft 177 kts 60°
2026-05-06 22:40 19.42492 -99.09530 7508 ft 179 kts 62°
2026-05-06 22:41 19.43686 -99.07396 7334 ft 126 kts 60°
2026-05-06 22:41 19.44007 -99.06825 7332 ft 51 kts 59°
2026-05-06 22:41 19.44131 -99.06694 7331 ft 13 kts 19°
2026-05-06 22:42 19.44213 -99.06733 7331 ft 14 kts 318°
2026-05-06 22:42 19.44289 -99.06793 7331 ft 12 kts 326°
2026-05-06 22:42 19.44358 -99.06794 7331 ft 9 kts 38°
2026-05-06 22:42 19.44378 -99.06768 7331 ft 0 kts 59°